Miscellaneous Local Product
Issued by NWS Hastings, NE

Home | Current Version | Previous Version | Text Only | Print | Product List | Glossary Off
Versions: 1 2 3 4 5 6 7 8 9 10 11 12 13 14 15 16 17 18 19 20 21 22 23 24 25 26 27 28 29 30 31 32 33 34 35 36 37 38 39 40 41 42 43 44 45 46 47 48 49 50

000
AXUS43 KGID 281802
MISGRI

GID CWA HOURLY WEATHER ROUNDUP
NATIONAL WEATHER SERVICE HASTINGS NE
100 PM CDT THU MAY 28 2015

NOTE: "FAIR" INDICATES FEW OR NO CLOUDS BELOW 12,000 FEET WITH NO
SIGNIFICANT WEATHER AND/OR OBSTRUCTIONS TO VISIBILITY.

...SOUTH CENTRAL NEBRASKA...

CITY           SKY/WX    TMP DP  RH WIND       PRES   REMARKS
GRAND ISLAND   CLOUDY    75  59  57 S14       30.00S
HASTINGS       CLOUDY    71  59  65 S13G24    30.01S
KEARNEY        CLOUDY    72  57  60 S15       30.01S
ORD            PTSUNNY   75  57  53 S18       29.97S
YORK           PTSUNNY   77  61  57 S13G21    29.99F
AURORA         PTSUNNY   76  57  51 S15       29.99S
LEXINGTON      CLOUDY    69  60  75 S13       29.99F
HOLDREGE       CLOUDY    68  57  68 S15       30.01R
HEBRON         PTSUNNY   75  60  58 S13G20    30.02R

...NEBRASKA PANHANDLE...

CITY           SKY/WX    TMP DP  RH WIND       PRES   REMARKS
CHADRON        MOSUNNY   70  51  51 NW13      29.95F
ALLIANCE       MOSUNNY   72  49  44 W6        29.96F
SCOTTSBLUFF    SUNNY     73  50  44 W13       29.99F
SIDNEY         MOSUNNY   74  52  46 N8        30.01S

...WESTERN AND NORTH CENTRAL NEBRASKA...

CITY           SKY/WX    TMP DP  RH WIND       PRES   REMARKS
VALENTINE      PTSUNNY   75  58  55 SE14      29.93S
AINSWORTH      PTSUNNY   74  60  62 S10       29.96S
ONEILL         SUNNY     78  58  51 S16       29.97S
BROKEN BOW     PTSUNNY   74  59  59 S15G25    29.98S
IMPERIAL       CLOUDY    66  57  72 S5        29.99F
NORTH PLATTE   CLOUDY    68  58  70 S12       29.98F
MCCOOK         PTSUNNY   73  61  65 S13       29.98F

...EASTERN NEBRASKA...

CITY           SKY/WX    TMP DP  RH WIND       PRES   REMARKS
NORFOLK        PTSUNNY   76  61  59 SE12G20   29.98S
SO SIOUX CITY  PTSUNNY   77  60  55 SE10G21   30.00S
TEKAMAH        PTSUNNY   74  60  61 SE18      30.01S
COLUMBUS       PTSUNNY   75  63  64 S14       30.00F
ALBION         PTSUNNY   76  58  52 SE10      29.98S
OMAHA EPPLEY   CLOUDY    71  61  70 S13       30.03S
OFFUTT AFB     CLOUDY    70  63  77 SE10      30.03S
MILLARD        LGT RAIN  70  62  75 SE9       30.03F
LINCOLN        CLOUDY    69  63  81 SE13      30.03S
NEBRASKA CITY  CLOUDY    70  59  66 S14       30.05S
BEATRICE       CLOUDY    70  64  82 SE12      30.03S
FALLS CITY     LGT RAIN  68  63  84 SE15      30.06R

...NORTHERN KANSAS...

CITY           SKY/WX    TMP DP  RH WIND       PRES   REMARKS
GOODLAND       PTSUNNY   70  59  68 S13       30.00F
HILL CITY      CLOUDY    74  60  61 SE9       30.01F
NORTON         CLEAR     73  55  53 SE12G18   30.00S
SMITH CENTER   SUNNY     66  63  88 E6        30.01F
HAYS           CLOUDY    72  59  64 E10G16    30.02F
RUSSELL        CLOUDY    72  63  73 SE12      30.01F
CONCORDIA      CLOUDY    75  64  68 S16G24    30.02F
SALINA         CLOUDY    73  65  75 S12       30.04S
TOPEKA         CLOUDY    70  65  84 SE12      30.06F



USA.gov is the U.S. government's official web portal to all federal, state and local government web resources and services.